Zurück zum Katalog

SES 15

AktivKommunikationGEO
NORAD 42709·PAYLOAD·🇱🇺 Luxembourg

Gestartet May 18, 2017 von Guiana Space Centre

Loading…

TLE

AktuellSource: CelesTrak SupGP

Epoche: Sep 13, 2026, 23:30 UTC

1 42709C 17026A   26256.97916667  .00000153  00000+0  00000+0 0  2563
2 42709   0.0420 319.4293 0000836 184.6890  72.1853  1.00273283    17

Verfolge SES 15 in Echtzeit mit AllMySat

Download on the App Store